Location: ??????
(56.0120°N, 39.1740°E)
Time: 11:38:52
(UTC+00:00)

Cosmos 1656 Rocket - Pass Details

Date: 14 April 2026
Orbit: 794 x 843 km, 71.1° (Epoch: 9 May)

Event Time Altitude Azimuth Distance (km) Brightness Sun altitude
Rises 18:54:11 0° 324° (NW) 3,314 8.6 -17.4°
Reaches altitude 10° 18:56:36 10° 322° (NW) 2,384 7.4 -17.6°
Maximum altitude 19:01:59 64° 242° (WSW) 891 3.8 -18.1°
Enters shadow 19:04:42 29° 170° (S) 1,437 4.4 -18.3°
